This site uses a module created by best online poker sites.

BSB police report ending November 5, 2018

Print
"11/02/2018","00:01","218CR0028266","SEXUAL ASSAULT","SEXUAL ASSAULT","************","",""
"11/02/2018","00:17","218CR0028267","ATL","ATL","24 E COPPER","",""
"11/02/2018","00:39","218CR0028268","DISTURBANCE","DISTURBANCE","541 S MONTANA SPUD MCGEES","",""
"11/02/2018","00:42","218CR0028269","DUI","AGGRAVATED DUI","2112 GRAND AVE","ARREST(s) MADE",""
"11/02/2018","00:47","218CR0028270","DISTURBANCE","CRIMINAL CONTEMPT","541 S MAIN SPUD MCGEES","ARREST(s) MADE",""
"11/02/2018","01:53","218CR0028271","ILLEGAL SHOOTING","ILLEGAL SHOOTING","31 E GAGNON ST","",""
"11/02/2018","03:44","218CR0028272","MEDICAL - EMERGENCY","MEDICAL - EMERGENCY","812 SILVERBOW HOMES","",""
"11/02/2018","04:11","218CR0028273","SUSPICIOUS ACTIVITY","SUSPICIOUS ACTIVITY","2925 HANSEN RD","",""
"11/02/2018","04:35","218CR0028274","OPEN BUILDING","OPEN BUILDING","2937 HANSEN RD","",""
"11/02/2018","05:29","218CR0028275","SUSPICIOUS ACTIVITY","CRIMINAL CONTEMPT","CONTINENTAL DR AND BAYARD ST","ARREST(s) MADE",""
"11/02/2018","06:35","218CR0028276","THEFT","THEFT, SHOPLIFT","531 S MONTANA","",""
"11/02/2018","07:18","218CR0028277","ANIMAL COMPLAINT","ANIMAL COMPLAINT","BARTLETT // ASPEN LOOP","",""
"11/02/2018","07:52","218CR0028278","T/S","OPERATING WITHOUT CURRENT REGI","ELIZABETH WARREN AND BURNING T","",""
"11/02/2018","07:54","218CR0028279","T/S","T/S","DAHLGREN AND AMHERST","",""
"11/02/2018","08:04","218CR0028280","SUSPICIOUS ACTIVITY","SUSPICIOUS ACTIVITY","3703 HARRISON AVE","",""
"11/02/2018","08:19","218CR0028281","BUSINESS CHECK","BUSINESS CHECK","58 W PARK ST PARKING GARAGE","",""
"11/02/2018","08:21","218CR0028282","W/PRISONER","W/PRISONER","812 E 2ND ST","",""
"11/02/2018","08:22","218CR0028283","CIVIL PAPER SERVICE","CIVIL PAPER SERVICE","4810 S ARIZONA ST","",""
"11/02/2018","08:31","218CR0028284","BUSINESS CHECK","BUSINESS CHECK","58 W PARK ST PARKING GARAGE","",""
"11/02/2018","08:35","218CR0028285","CIVIL PAPER SERVICE","CIVIL PAPER SERVICE","2124 OREGON","",""
"11/02/2018","08:51","218CR0028286","CIVIL PAPER SERVICE","CIVIL PAPER SERVICE","10 GLADSTONE TERRACE","",""
"11/02/2018","09:24","218CR0028287","THEFT","THEFT, ALL OTHERS","116033 FLEECER RD","",""
"11/02/2018","09:31","218CR0028289","CIVIL PAPER SERVICE","CIVIL PAPER SERVICE","2825 FARRAGUT #D202","",""
"11/02/2018","09:33","218CR0028288","MEDICAL - EMERGENCY","MEDICAL - EMERGENCY","317 GRANITE MTN RD","",""
"11/02/2018","09:35","218CR0028290","LED BUSINESS","LED BUSINESS","24 E COPPER","",""
"11/02/2018","09:39","218CR0028291","CIVIL PAPER SERVICE","CIVIL PAPER SERVICE","2545 AMHERST","",""
"11/02/2018","09:46","218CR0028292","LED BUSINESS","LED BUSINESS","155 W GRANITE ST","",""
"11/02/2018","09:53","218CR0028293","WELFARE CHECK","WELFARE CHECK","1736 LONGFELLOW #16","",""
"11/02/2018","09:59","218CR0028294","WELFARE CHECK","WELFARE CHECK","633 S IDAHO","",""
"11/02/2018","10:32","218CR0028295","SUSPICIOUS ACTIVITY","SUSPICIOUS ACTIVITY","1245 FARRELL ST","",""
"11/02/2018","10:32","218CR0028296","UNKNOWN PROBLEM","UNKNOWN PROBLEM","200 BLK MISSOULA AVE","",""
"11/02/2018","10:40","218CR0028297","CIVIL PAPER SERVICE","CIVIL PAPER SERVICE","400 S CLARK","",""
"11/02/2018","10:57","218CR0028298","T/S","T/S","DEWEY AND HILL","",""
"11/02/2018","11:07","218CR0028299","DISTURBANCE","DISTURBANCE","1221 FARRELL","",""
"11/02/2018","11:19","218CR0028300","ATL","ATL","HIGH ALTITUDE SPEED SKATING CT","",""
"11/02/2018","11:20","218CR0028301","HARASSMENT","HARASSMENT","1631 ELM ST","",""
"11/02/2018","11:56","218CR0028302","T/S","T/S","2300 BLK CONTINENTAL DR","",""
"11/02/2018","12:09","218CR0028303","FIRE- GAS ODOR","FIRE- GAS ODOR","120 W GRANITE","",""
"11/02/2018","12:14","218CR0028304","CIVIL STANDBY","CIVIL STANDBY","","",""
"11/02/2018","12:16","218CR0028305","VEHICLE INSPECTION","VEHICLE INSPECTION","225 N ALASKA","",""
"11/02/2018","12:20","218CR0028306","TRAFFIC HAZARD","TRAFFIC HAZARD","GRAND AND HARRISON","",""
"11/02/2018","12:28","218CR0028307","PARKING COMPLAINT","PARKING COMPLAINT","332 W BROADWAY","",""
"11/02/2018","12:39","218CR0028308","DRUGS","DRUGS","************","",""
"11/02/2018","12:40","218CR0028309","LED BUSINESS","LED BUSINESS","BSB GUN RANGE","",""
"11/02/2018","12:49","218CR0028310","MEDICAL - EMERGENCY","MEDICAL - EMERGENCY","26 S ROCKER RD","",""
"11/02/2018","13:23","218CR0028311","ALARM - BURGLARY","ALARM - BURGLARY","************","",""
"11/02/2018","13:27","218CR0028312","ALARM - BURGLARY","ALARM - BURGLARY","************","",""
"11/02/2018","13:49","218CR0028313","THEFT","THEFT, ALL OTHERS","1205 S MONTANA","",""
"11/02/2018","13:53","218CR0028314","SUSPICIOUS ACTIVITY","SUSPICIOUS ACTIVITY","100 GARDENS WAY","",""
"11/02/2018","14:21","218CR0028315","ALL OTHER","ALL OTHER","FLORAL AND SHERIDAN AVE","",""
"11/02/2018","14:38","218CR0028316","ALARM - FIRE","ALARM - FIRE","120 W GRANITE","",""
"11/02/2018","14:46","218CR0028317","ALL OTHER","ALL OTHER","2018 PORTER","",""
"11/02/2018","14:53","218CR0028318","ALL OTHER","ALL OTHER","2500 MASSACHUSETTS AVE","",""
"11/02/2018","14:57","218CR0028319","CIVIL PAPER SERVICE","CRIMINAL CONTEMPT","2545 AMHERST","ARREST(s) MADE",""
"11/02/2018","15:09","218CR0028320","CIVIL STANDBY","CIVIL STANDBY","225 N ALASKA","",""
"11/02/2018","15:35","218CR0028321","THEFT","THEFT, SHOPLIFT","3901 HARRISON","",""
"11/02/2018","15:38","218CR0028322","BUSINESS CHECK","BUSINESS CHECK","58 W PARK","",""
"11/02/2018","15:47","218CR0028323","HIT AND RUN","CRIMINAL ENDANGERMENT","500 S EMMETT","",""
"11/02/2018","15:55","218CR0028324","FRAUD","FRAUD","225 N ALASKA","",""
"11/02/2018","15:57","218CR0028325","WANTED PERSON","WANTED PERSON","************","",""
"11/02/2018","16:02","218CR0028326","PARKING COMPLAINT","PARKING COMPLAINT","502 E FRONT ST IN ALLEY","",""
"11/02/2018","16:08","218CR0028327","MEDICAL - EMERGENCY","MEDICAL - EMERGENCY","2825 FARRAGUT APT E103","",""
"11/02/2018","16:08","218CR0028328","DISTURBANCE-NOISE","DISTURBANCE-NOISE","207 W PARK ST #5","",""
"11/02/2018","16:14","218CR0028329","THEFT","CRIMINAL TRESPASS TO PROPERTY","528 W QUARTZ","",""
"11/02/2018","16:16","218CR0028330","LOST OR STOLEN PROPERTY","THEFT, ALL OTHERS","39 W DALY ST","",""
"11/02/2018","16:28","218CR0028331","WANTED PERSON","WANTED PERSON","************","",""
"11/02/2018","16:36","218CR0028332","THEFT","THEFT, SHOPLIFT","3901 HARRISON","ARREST(s) MADE",""
"11/02/2018","16:58","218CR0028333","LED BUSINESS","LED BUSINESS","936 NEVADA","",""
"11/02/2018","17:01","218CR0028334","FRAUD","FRAUD","225 N ALASKA","",""
"11/02/2018","17:36","218CR0028335","HIT AND RUN","HIT AND RUN","3500 HARRISON AVE","",""
"11/02/2018","17:58","218CR0028336","ATL","ATL","4075 WYNNE AVE","",""
"11/02/2018","18:17","218CR0028337","ALL OTHER","ALL OTHER","1620 N MAIN","",""
"11/02/2018","18:19","218CR0028338","UNWANTED PERSON","UNWANTED PERSON","************","",""
"11/02/2018","18:55","218CR0028339","ALL OTHER","ALL OTHER","472 ELKHORN","",""
"11/02/2018","18:58","218CR0028340","PARKING COMPLAINT","PARKING COMPLAINT","414 W GRANITE ST","",""
"11/02/2018","19:02","218CR0028341","SUSPICIOUS ACTIVITY","SUSPICIOUS ACTIVITY","1700 CIVIC CENTER RD","",""
"11/02/2018","19:59","218CR0028343","MEDICAL - EMERGENCY","MEDICAL - EMERGENCY","910 EVANS #H2","",""
"11/02/2018","20:16","218CR0028344","MEDICAL - EMERGENCY","MEDICAL - EMERGENCY","2900 HARRISON AVE","",""
"11/02/2018","20:23","218CR0028345","ALL OTHER","ALL OTHER","1504 ELM","",""
"11/02/2018","20:34","218CR0028346","FIRE - STRUCTURE","FIRE - STRUCTURE","1012 MICHIGAN","",""
"11/02/2018","21:00","218CR0028347","WELFARE CHECK","WELFARE CHECK","549 S MAIN","",""
"11/02/2018","21:17","218CR0028348","UNKNOWN PROBLEM","UNKNOWN PROBLEM","220 N WYOMING","",""
"11/02/2018","21:21","218CR0028349","DISTURBANCE-NOISE","DISTURBANCE-NOISE","635 W GRANITE","",""
"11/02/2018","22:07","218CR0028350","THEFT","BURGLARY, RESIDENCE","1601 GAYLORD","",""
"11/02/2018","22:08","218CR0028351","BUSINESS CHECK","BUSINESS CHECK","58 W PARK ST PARKING GARAGE","",""
"11/02/2018","22:15","218CR0028352","SUSPICIOUS ACTIVITY","SUSPICIOUS ACTIVITY","1756 ADAMS","",""
"11/02/2018","22:20","218CR0028353","T/S","NO LIABILITY INSURANCE IN EFF.","PLATINUM AND ARIZONA","",""
"11/02/2018","22:29","218CR0028354","SUSPICIOUS ACTIVITY","SUSPICIOUS ACTIVITY","GRAND AND HAYES","",""
"11/02/2018","22:35","218CR0028355","SUSPICIOUS ACTIVITY","SUSPICIOUS ACTIVITY","10 BLK SUNVIEW TERRACE","",""
"11/02/2018","22:45","218CR0028356","MEDICAL - EMERGENCY","MEDICAL - EMERGENCY","","",""
"11/02/2018","22:45","218CR0028357","MEDICAL - EMERGENCY","ASSAULT WITH WEAPON","2905 MOULTON","",""
"11/02/2018","23:03","218CR0028358","DISTURBANCE-NOISE","DISTURBANCE-NOISE","635 W GRANITE","",""
"11/02/2018","23:14","218CR0028359","DISTURBANCE","DISTURBANCE","3700 HARRISON MAGIC DIAMOND","",""
"11/02/2018","23:26","218CR0028360","SUSPICIOUS ACTIVITY","SUSPICIOUS ACTIVITY","2800 BLK KOSSUTH","",""
"11/02/2018","23:29","218CR0028361","DISTURBANCE-NOISE","DISTURBANCE-NOISE","910 EVANS APT C3","",""
"11/02/2018","23:52","218CR0028362","DISTURBANCE-NOISE","DISTURBANCE-NOISE","1615 N MAIN","",""
"11/03/2018","01:54","218CR0028363","DISTURBANCE","DISTURBANCE","433 W IRON","",""
"11/03/2018","02:04","218CR0028364","DISTURBANCE-NOISE","DISTURBANCE-NOISE","1125 S MAIN ROSALIE MANOR","",""
"11/03/2018","03:49","218CR0028365","SUSPICIOUS ACTIVITY","SUSPICIOUS ACTIVITY","1900 2000 BLK WALNUT","",""
"11/03/2018","04:06","218CR0028366","MEDICAL - EMERGENCY","MEDICAL - EMERGENCY","3470 RIDGEWAY","",""
"11/03/2018","04:28","218CR0028367","THEFT","THEFT, SHOPLIFT","1000 GRIZZLY TR TOWN PUMP","",""
"11/03/2018","05:00","218CR0028368","MEDICAL - EMERGENCY","MEDICAL - EMERGENCY","","",""
"11/03/2018","05:27","218CR0028369","SUSPICIOUS ACTIVITY","SUSPICIOUS ACTIVITY","969 N MAIN ST","",""
"11/03/2018","06:03","218CR0028370","ALARM - BURGLARY","ALARM - BURGLARY","************","",""
"11/03/2018","06:13","218CR0028371","MEDICAL - EMERGENCY","MEDICAL - EMERGENCY","1300 W PARK","",""
"11/03/2018","07:48","218CR0028372","BUSINESS CHECK","BUSINESS CHECK","58 W PARK","",""
"11/03/2018","08:08","218CR0028373","BUSINESS CHECK","BUSINESS CHECK","58 W PARK","",""
"11/03/2018","09:00","218CR0028374","HIT AND RUN","HIT AND RUN, UNATTENDED VEHICL","226 W SILVER APT 19","",""
"11/03/2018","09:01","218CR0028375","CIVIL PAPER SERVICE","CIVIL PAPER SERVICE","4810 S ARIZONA","",""
"11/03/2018","09:13","218CR0028376","T/S","T/S","ELIZABETH WARREN AND FORD WY","",""
"11/03/2018","09:18","218CR0028377","THEFT","THEFT FROM MOTOR VEHICLE","4655 HARRISON AVE","",""
"11/03/2018","09:23","218CR0028378","STOLEN VEHICLE","BURGLARY, NON-RESIDENCE","1301 UTAH AVE","",""
"11/03/2018","09:56","218CR0028379","UNWANTED PERSON","UNWANTED PERSON","************","",""
"11/03/2018","10:07","218CR0028380","ACCIDENT","ACCIDENT","2324 WALNUT","",""
"11/03/2018","10:33","218CR0028381","MEDICAL - EMERGENCY","MEDICAL - EMERGENCY","220 N WYOMING RM 108","",""
"11/03/2018","10:39","218CR0028382","VANDALISM/CRIMINAL MISCHIEF","CRIMINAL MISCHIEF","120 N MONTANA 3B","",""
"11/03/2018","10:55","218CR0028384","THEFT","THEFT, ALL OTHERS","135 BOVINE WAY","",""
"11/03/2018","11:17","218CR0028386","UNWANTED PERSON","UNWANTED PERSON","************","",""
"11/03/2018","11:21","218CR0028387","FOUND PROPERTY","FOUND PROPERTY","************","",""
"11/03/2018","11:42","218CR0028388","ALARM - BURGLARY","ALARM - BURGLARY","************","",""
"11/03/2018","11:44","218CR0028389","THEFT","THEFT","531 S MONTANA","",""
"11/03/2018","12:01","218CR0028390","MEDICAL - EMERGENCY","MEDICAL - EMERGENCY","1300 W PARK","",""
"11/03/2018","12:03","218CR0028391","UNWANTED PERSON","UNWANTED PERSON","************","",""
"11/03/2018","12:27","218CR0028392","ACCIDENT","ACCIDENT","1322 SAGE ST","",""
"11/03/2018","12:43","218CR0028393","T/S","DRIVE WHILE SUSP. OR REVOKED","MONTANA AND GOLD","",""
"11/03/2018","13:10","218CR0028394","HARASSMENT","HARASSMENT","932 S UTAH","",""
"11/03/2018","13:13","218CR0028395","TRAFFIC HAZARD","TRAFFIC HAZARD","1800 BLK ADAMS","",""
"11/03/2018","14:35","218CR0028396","ACCIDENT","ACCIDENT","1300 BLOCK OF PLATINUM","",""
"11/03/2018","15:10","218CR0028397","ALARM-DURESS","ALARM-DURESS","************","",""
"11/03/2018","15:10","218CR0028398","T/S","T/S","1921 THOMAS AVE","",""
"11/03/2018","15:24","218CR0028399","HARASSMENT","HARASSMENT","2700 HARRISON","",""
"11/03/2018","15:33","218CR0028400","THEFT","THEFT","222 E PARK","",""
"11/03/2018","15:42","218CR0028401","MEDICAL - EMERGENCY","MEDICAL - EMERGENCY","3153 WYNNE","",""
"11/03/2018","16:16","218CR0028402","DISTURBANCE","DISTURBANCE","58 W PARK ST PARKING GARAGE","",""
"11/03/2018","16:24","218CR0028403","DISTURBANCE","PFMA - WEAPON","3220 HANNIBAL","",""
"11/03/2018","16:30","218CR0028404","WELFARE CHECK","WELFARE CHECK","1027 E FRONT","",""
"11/03/2018","16:36","218CR0028405","ALL OTHER","ALL OTHER","22 W GALENA RICHEST HILL CASIN","",""
"11/03/2018","17:02","218CR0028406","ALL OTHER","ALL OTHER","910 EVANS","",""
"11/03/2018","17:14","218CR0028407","ALL OTHER","ALL OTHER","540 S MAIN ST","",""
"11/03/2018","17:16","218CR0028408","MEDICAL - EMERGENCY","MEDICAL - EMERGENCY","1921 LAFAYETTE","",""
"11/03/2018","17:26","218CR0028409","UNKNOWN PROBLEM","UNKNOWN PROBLEM","1300 BLK CASEY ST","",""
"11/03/2018","17:39","218CR0028410","ALL OTHER","ALL OTHER","25 E GRANITE #310","",""
"11/03/2018","18:23","218CR0028411","ALL OTHER","ALL OTHER","531 S MONTANA","",""
"11/03/2018","18:23","218CR0028412","ALL OTHER","ALL OTHER","531 S MONTANA","",""
"11/03/2018","18:55","218CR0028413","ALL OTHER","ALL OTHER","102 SILVER BOW HOMES","",""
"11/03/2018","18:56","218CR0028414","PARKING COMPLAINT","PARKING COMPLAINT","1315 S MONTANA ST","",""
"11/03/2018","19:19","218CR0028415","ALL OTHER","ALL OTHER","115 LAUREL","",""
"11/03/2018","19:22","218CR0028416","VANDALISM/CRIMINAL MISCHIEF","VANDALISM/CRIMINAL MISCHIEF","1647 B ST","",""
"11/03/2018","20:43","218CR0028417","T/S","T/S","TX AND SHIELD","",""
"11/03/2018","20:48","218CR0028418","TRAFFIC HAZARD","TRAFFIC HAZARD","126 RAMPART DR","",""
"11/03/2018","20:52","218CR0028419","TRAFFIC HAZARD","TRAFFIC HAZARD","","",""
"11/03/2018","21:06","218CR0028420","DISTURBANCE","DISTURBANCE","320 W BROADWAY #C","",""
"11/03/2018","21:27","218CR0028421","DISTURBANCE-NOISE","DISTURBANCE-NOISE","1015 W PORPHRY","",""
"11/03/2018","21:36","218CR0028422","THEFT","THEFT, SHOPLIFT","3901 HARRISON AVE","",""
"11/03/2018","21:44","218CR0028423","ASSAULT","PFMA - MINOR INJ/PHYSICAL CONT","4002 HANCOCK","",""
"11/03/2018","21:58","218CR0028424","UNWANTED PERSON","UNWANTED PERSON","************","",""
"11/03/2018","22:32","218CR0028425","SUSPICIOUS ACTIVITY","SUSPICIOUS ACTIVITY","1955 DEWEY BLVD","",""
"11/03/2018","23:15","218CR0028426","THEFT","THEFT FROM MOTOR VEHICLE","122005 NISSLER RD","",""
"11/03/2018","23:24","218CR0028427","SUSPICIOUS ACTIVITY","SUSPICIOUS ACTIVITY","2038 WALNUT","",""
"11/03/2018","23:27","218CR0028428","ACCIDENT","ACCIDENT","900 BLK OF COPPER","",""
"11/03/2018","23:47","218CR0028429","SUSPICIOUS ACTIVITY","SUSPICIOUS ACTIVITY","GALENA RICHEST HILL CASINO","",""
"11/04/2018","00:02","218CR0028430","HARASSMENT","HARASSMENT","120 1/2 N IDAHO","",""
"11/04/2018","00:51","218CR0028431","THEFT","BURGLARY, RESIDENCE","2290 COBBAN #3","",""
"11/04/2018","01:01","218CR0028432","SUSPICIOUS ACTIVITY","SUSPICIOUS ACTIVITY","2100 CONTINENTAL","",""
"11/04/2018","01:09","218CR0028433","SUSPICIOUS ACTIVITY","SUSPICIOUS ACTIVITY","HOLLAND AND MONTANA","",""
"11/04/2018","01:11","218CR0028434","MEDICAL - EMERGENCY","MEDICAL - EMERGENCY","436 S MAIN ST APT 408","",""
"11/04/2018","01:18","218CR0028435","SUSPICIOUS ACTIVITY","SUSPICIOUS ACTIVITY","531 1/2 S DAKOTA","",""
"11/04/2018","01:26","218CR0028436","THEFT","THEFT","225 N ALASKA","",""
"11/04/2018","01:41","218CR0028437","SUSPICIOUS ACTIVITY","SUSPICIOUS ACTIVITY","835 9TH ST","",""
"11/04/2018","02:08","218CR0028438","ALL OTHER","CRIMINAL TRESPASS TO PROPERTY","735 13TH ST","ARREST(s) MADE",""
"11/04/2018","02:34","218CR0028439","HAZ MAT","HAZ MAT","ROCKER TOWN PUMP","",""
"11/04/2018","02:48","218CR0028440","THEFT","THEFT, ALL OTHERS","2290 COBBAN ST #3","",""
"11/04/2018","03:08","218CR0028441","ACCIDENT - INJURY","ACCIDENT - INJURY","4100 EAST LAKE STREET","",""
"11/04/2018","04:40","218CR0028442","ALL OTHER","ALL OTHER","100 GARDENS WAY #149","",""
"11/04/2018","05:03","218CR0028443","SUSPICIOUS ACTIVITY","SUSPICIOUS ACTIVITY","969 N MAIN ST","",""
"11/04/2018","06:17","218CR0028444","UNWANTED PERSON","UNWANTED PERSON","************","",""
"11/04/2018","06:24","218CR0028445","FIRE - STRUCTURE","FIRE - STRUCTURE","108 MULLIN ST","",""
"11/04/2018","06:42","218CR0028446","MEDICAL - EMERGENCY","MEDICAL - EMERGENCY","43 TRANQUILITY LANE","",""
"11/04/2018","07:18","218CR0028447","THEFT","THEFT FROM MOTOR VEHICLE","3125 QUINCY ST","",""
"11/04/2018","07:22","218CR0028448","MEDICAL - ASSIST","MEDICAL - ASSIST","************","",""
"11/04/2018","08:07","218CR0028449","CIVIL PAPER SERVICE","CIVIL PAPER SERVICE","2825 FARRAGUT AVE APT D202","",""
"11/04/2018","08:11","218CR0028450","BUSINESS CHECK","BUSINESS CHECK","58 W PARK","",""
"11/04/2018","08:34","218CR0028451","CIVIL PAPER SERVICE","CIVIL PAPER SERVICE","815 13TH ST","",""
"11/04/2018","08:39","218CR0028452","THEFT","THEFT FROM MOTOR VEHICLE","ECONO LODGE 122005 NISSLER RD","",""
"11/04/2018","08:41","218CR0028453","CIVIL PAPER SERVICE","CIVIL PAPER SERVICE","208 OHIO","",""
"11/04/2018","08:46","218CR0028454","ASSIST OTHER AGENCY","ASSIST OTHER AGENCY","I90 EB MM236","",""
"11/04/2018","09:05","218CR0028455","VANDALISM/CRIMINAL MISCHIEF","VANDALISM/CRIMINAL MISCHIEF","2921 BUSCH ST","",""
"11/04/2018","09:07","218CR0028456","ALARM - BURGLARY","ALARM - BURGLARY","************","",""
"11/04/2018","11:27","218CR0028457","SEXUAL ASSAULT","SEXUAL ASSAULT","************","",""
"11/04/2018","11:54","218CR0028458","TRAFFIC HAZARD","TRAFFIC HAZARD","36 E CENTER","",""
"11/04/2018","11:59","218CR0028459","SUSPICIOUS ACTIVITY","SUSPICIOUS ACTIVITY","FRONT AND HARRISON","",""
"11/04/2018","12:16","218CR0028460","ACCIDENT","ACCIDENT","2700 BLK HARRISON AVE","",""
"11/04/2018","12:19","218CR0028461","BUSINESS CHECK","BUSINESS CHECK","531 S MONTANA","",""
"11/04/2018","12:38","218CR0028462","DISTURBANCE","DISTURBANCE","1919 S ARIZONA","",""
"11/04/2018","12:39","218CR0028463","SUSPICIOUS ACTIVITY","SUSPICIOUS ACTIVITY","BUSCH AND GILMAN","",""
"11/04/2018","12:44","218CR0028464","BURGLARY","THEFT OF VEHICLE PARTS/ACCESSO","3938 IRIS RIDGE","",""
"11/04/2018","12:46","218CR0028465","ASSAULT","ASSAULT","************","",""
"11/04/2018","12:55","218CR0028466","SUICIDE ATTEMPT/THREAT","SUICIDE ATTEMPT/THREAT","************","",""
"11/04/2018","13:21","218CR0028467","CIVIL PAPER SERVICE","CIVIL PAPER SERVICE","665 S WASHINGTON","",""
"11/04/2018","13:28","218CR0028468","THEFT","THEFT FROM MOTOR VEHICLE","2706 NETTIE","",""
"11/04/2018","13:38","218CR0028469","UNWANTED PERSON","UNWANTED PERSON","************","",""
"11/04/2018","13:44","218CR0028470","WELFARE CHECK","WELFARE CHECK","831 W ZARELDA ST","",""
"11/04/2018","14:26","218CR0028471","T/S","OPERATING WITHOUT CURRENT REGI","PARK AND ALABAMA","",""
"11/04/2018","14:41","218CR0028472","ACCIDENT- INJURY(MHP)","ACCIDENT- INJURY(MHP)","1059 CAMCREEK RD","",""
"11/04/2018","14:48","218CR0028473","ALL OTHER","ALL OTHER","MINERS HOTEL 53 W PARK","",""
"11/04/2018","14:49","218CR0028474","THEFT","THEFT","418 W QUARTZ","",""
"11/04/2018","15:01","218CR0028475","UNWANTED PERSON","POSSESSION OF DANGEROUS DRUGS","531 S MONTANA","ARREST(s) MADE",""
"11/04/2018","15:22","218CR0028476","ACCIDENT","DUI - (REFUSAL)","PARK AND EXCLESIOR","ARREST(s) MADE",""
"11/04/2018","15:38","218CR0028477","BURGLARY","BURGLARY, RESIDENCE","100 LAUREL RD","",""
"11/04/2018","15:44","218CR0028478","JUVENILE MISC","JUVENILE MISC","************","",""
"11/04/2018","15:57","218CR0028479","FRAUD","FORGERY/COUNTERFEIT","310 W FRONT","",""
"11/04/2018","16:34","218CR0028480","UNKNOWN PROBLEM","UNKNOWN PROBLEM","1811 PORTER AVE","",""
"11/04/2018","17:05","218CR0028481","FOUND PROPERTY","FOUND PROPERTY","************","",""
"11/04/2018","17:41","218CR0028482","SUSPICIOUS ACTIVITY","SUSPICIOUS ACTIVITY","2929 JOSEPHINE","",""
"11/04/2018","18:09","218CR0028484","ALL OTHER","ALL OTHER","BERKELEY PIT VIEWING STAND","",""
"11/04/2018","18:13","218CR0028485","HARASSMENT","HARASSMENT","305 S OHIO","",""
"11/04/2018","18:32","218CR0028486","SUSPICIOUS ACTIVITY","SUSPICIOUS ACTIVITY","HOLMES AND HILL","",""
"11/04/2018","18:54","218CR0028487","THEFT","THEFT, ALL OTHERS","1900 S MONTANA","",""
"11/04/2018","18:58","218CR0028488","LED BUSINESS","LED BUSINESS","ST JAMES ER","",""
"11/04/2018","19:01","218CR0028489","ALL OTHER","ALL OTHER","246 E MERCURY","",""
"11/04/2018","19:06","218CR0028490","HARASSMENT","HARASSMENT","3200 DEXTER","",""
"11/04/2018","20:00","218CR0028491","SUSPICIOUS ACTIVITY","SUSPICIOUS ACTIVITY","207 E PACIFIC","",""
"11/04/2018","20:11","218CR0028492","SUSPICIOUS ACTIVITY","SUSPICIOUS ACTIVITY","ADAMS ST AND FARRELL ST","",""
"11/04/2018","20:15","218CR0028493","ANIMAL COMPLAINT","ANIMAL COMPLAINT","2647 GOODWIN ST","",""
"11/04/2018","20:18","218CR0028494","T/S","SPEEDING","2900 BLK HARRISON AVE","",""
"11/04/2018","21:08","218CR0028495","MEDICAL - EMERGENCY","MEDICAL - EMERGENCY","721 UTAH ALANO CLUB","",""
"11/04/2018","21:12","218CR0028496","DISTURBANCE","DISTURBANCE","2031 ABERDEEN","",""
"11/04/2018","21:38","218CR0028497","MEDICAL - EMERGENCY","MEDICAL - EMERGENCY","3116 PAXSON","",""
"11/04/2018","21:58","218CR0028498","THEFT","THEFT, ALL OTHERS","1370 HARRISON","",""
"11/04/2018","22:13","218CR0028499","THEFT","THEFT, ALL OTHERS","2201 WALL","",""
"11/04/2018","22:18","218CR0028500","T/S","SPEEDING","CHULA AND ROWE RD","",""
"11/04/2018","22:42","218CR0028501","T/S","T/S","OTTAWA ST AND GLADSTONE ST","",""
"11/04/2018","23:16","218CR0028502","T/S","SPEEDING","2821 LEXINGTON AVE","",""
"11/04/2018","23:17","218CR0028503","ACCIDENT","ACCIDENT","1716 HARRISON AVE","",""
"11/04/2018","23:32","218CR0028504","ATL","ATL","2720 PINE ST","",""
"11/04/2018","23:46","218CR0028505","WELFARE CHECK","WELFARE CHECK","205 NEVERSWEAT","",""
"11/04/2018","23:47","218CR0028506","T/S","T/S","HOWARD AND AMHERST","",""
"11/05/2018","00:05","218CR0028507","MEDICAL - EMERGENCY","MEDICAL - EMERGENCY","1111 SILVER BOW HOMES","",""
"11/05/2018","00:12","218CR0028508","SUSPICIOUS ACTIVITY","SUSPICIOUS ACTIVITY","1960 HARRISON AVE TACO JOHNS","",""
"11/05/2018","00:15","218CR0028509","ALARM - BURGLARY","ALARM - BURGLARY","************","",""
"11/05/2018","00:35","218CR0028510","SUSPICIOUS ACTIVITY","SUSPICIOUS ACTIVITY","1814 ADAMS","",""
"11/05/2018","00:51","218CR0028512","SUSPICIOUS ACTIVITY","SUSPICIOUS ACTIVITY","LAFAYETTE AND ELM","",""
"11/05/2018","00:51","218CR0028511","SUSPICIOUS ACTIVITY","SUSPICIOUS ACTIVITY","GRAND AND HARRISON","",""
"11/05/2018","00:57","218CR0028513","T/S","T/S","ADAM AND FARRELL","",""
"11/05/2018","01:15","218CR0028514","BUSINESS CHECK","BUSINESS CHECK","531 S MONTANA","",""
"11/05/2018","02:05","218CR0028515","SUSPICIOUS ACTIVITY","SUSPICIOUS ACTIVITY","2ND ST AND UTAH AVE","",""
"11/05/2018","02:09","218CR0028516","SUSPICIOUS ACTIVITY","SUSPICIOUS ACTIVITY","2600 BLK AMHERST","",""
"11/05/2018","04:58","218CR0028517","SUSPICIOUS ACTIVITY","SUSPICIOUS ACTIVITY","HILL AVE AND EVANS","",""
"11/05/2018","05:11","218CR0028518","CITIZEN AID","CITIZEN AID","I15 MM 111 NB","",""
"11/05/2018","06:18","218CR0028519","MEDICAL - EMERGENCY","MEDICAL - EMERGENCY","1125 S MAIN ST","",""
"11/05/2018","06:23","218CR0028520","VANDALISM/CRIMINAL MISCHIEF","VANDALISM/CRIMINAL MISCHIEF","1407 SUNRISE LN","",""
"11/05/2018","06:49","218CR0028521","CITIZEN AID","CITIZEN AID","1631 SAMPSON ST","",""
"11/05/2018","07:34","218CR0028523","CIVIL PAPER SERVICE","CIVIL PAPER SERVICE","309 W DALY","",""
 
Wednesday the 14th. Affiliate Marketing.
Copyright 2012

©